Regional Weather Roundup
Issued by NWS

Home | Current Version | Previous Version | Graphics & Text | Print | Product List | Glossary On
Versions: 1 2 3 4 5 6 7 8 9 10 11 12 13 14 15 16 17 18 19 20 21 22 23 24 25 26 27 28 29 30 31 32 33 34 35 36 37 38 39 40 41 42 43 44 45 46 47 48 49 50
000
ASUS43 KLSX 271010
RWRMO

WEATHER SUMMARY FOR MISSOURI
NATIONAL WEATHER SERVICE SPRINGFIELD MO
500 AM CDT SAT AUG 27 2016

NOTE: "FAIR" INDICATES FEW OR NO CLOUDS BELOW 12,000 FEET WITH NO
       SIGNIFICANT WEATHER AND/OR OBSTRUCTIONS TO VISIBILITY.
       CURRENT SKY AND/OR WEATHER CONDITIONS ARE NOT AVAILABLE FOR
       CHILLICOTHE AND FARMINGTON.

MOZ001>031-035>038-043-044-053-054-271100-
...NORTHERN AND WESTERN MISSOURI...

CITY           SKY/WX    TMP DP  RH WIND       PRES   REMARKS
KANSAS CTY INT CLOUDY    67  66  97 S3        30.01R
KANSAS C DTWN  MOCLDY    69  66  90 CALM      30.00S
LEE`S SUMMIT   PTCLDY    70  67  90 S6        30.02S
ST JOSEPH      FOG       68  68 100 CALM      29.99F VSB 1/2
KIRKSVILLE     CLOUDY    66  64  93 S3        30.02R

$$
MOZ066>068-077>081-088>096-101>105-271100-
...SOUTHWEST MISSOURI...

CITY           SKY/WX    TMP DP  RH WIND       PRES   REMARKS
SPRINGFIELD    CLOUDY    72  69  90 S5        30.04F
JOPLIN         PTCLDY    69  68  96 CALM      30.04S
BRANSON        PTCLDY    70  70 100 CALM      30.07S

$$
MOZ032>034-039>042-045>050-055>058-069>072-271100-
...CENTRAL MISSOURI...

CITY           SKY/WX    TMP DP  RH WIND       PRES   REMARKS
COLUMBIA       CLOUDY    72  71  97 S3        30.03S
JEFFERSON CITY CLOUDY    73  71  93 CALM      30.02S
ROLLA          MOCLDY    71  69  93 S5        30.05S
SEDALIA        FOG       71  70  96 S7        30.04R VSB 1/4
WHITEMAN AFB   CLEAR     68  68 100 S6        30.02R FOG
OSAGE BEACH    PTCLDY    70  69  97 SE3       30.05

$$
MOZ051-052-059>065-271100-
...EAST CENTRAL MISSOURI...

CITY           SKY/WX    TMP DP  RH WIND       PRES   REMARKS
ST LOUIS INTL  CLOUDY    77  69  76 SW6       30.04R
SPIRIT OF STL  CLOUDY    73  71  93 SW5       30.02S
ST CHARLES     CLOUDY    75  73  93 CALM      30.03R

$$
MOZ072>076-082>087-097>100-106>115-271100-
...SOUTH CENTRAL AND SOUTHEAST MISSOURI...

CITY           SKY/WX    TMP DP  RH WIND       PRES   REMARKS
CAPE GIRARDEAU CLEAR     69  67  93 W3        30.03S
FARMINGTON     PTCLDY    70  68  93 W3        30.07S
POPLAR BLUFF   PTCLDY    70  69  97 CALM      30.03F
WEST PLAINS    CLOUDY    69  67  93 CALM      30.09F

$$




USA.gov is the U.S. government's official web portal to all federal, state and local government web resources and services.